Location: Clair
(33.8067°N, 117.9845°W)
Time: 18:32:38
(UTC+00:00)

Cosmos 1975 Rocket - Pass Details

Date: 14 February 2026
Orbit: 596 x 627 km, 82.5° (Epoch: 8 March)

Event Time Altitude Azimuth Distance (km) Brightness Sun altitude
Rises 13:42:59 0° 359° (N) 2,843 6.4 -11.9°
Reaches altitude 10° 13:45:15 10° 5° (N) 1,938 5.6 -11.4°
Maximum altitude 13:49:25 51° 81° (E) 755 4.0 -10.5°
Drops below altitude 10° 13:53:34 10° 158° (SSE) 1,933 6.0 -9.7°
Sets 13:55:49 0° 163° (SSE) 2,836 6.8 -9.2°
